| time (UTC) | temp C | wind direction | speed KPH | gust KPH | rain 1hr cm | rain 24hr cm | rain mn cm | humidity % | barometer mb |
| 20260506023003 | 11 | 267 | 0.0 | 0.0 | 0.00 | 0.00 | 0.13 | 91 | |
| 20260506021502 | 11 | 272 | 0.0 | 0.0 | 0.00 | 0.00 | 0.13 | 91 | |
| 20260506020003 | 11 | 340 | 0.0 | 0.0 | 0.00 | 0.00 | 0.13 | 91 | |
| 20260506014503 | 11 | 327 | 0.0 | 0.0 | 0.00 | 0.00 | 0.13 | 90 | |
| 20260506013002 | 11 | 287 | 0.0 | 0.0 | 0.00 | 0.00 | 0.13 | 90 | |
| 20260506011502 | 12 | 340 | 0.0 | 0.0 | 0.00 | 0.00 | 0.13 | 90 | |
| 20260506010002 | 12 | 285 | 4.8 | 0.0 | 0.00 | 0.00 | 0.13 | 90 | |
| 20260506004503 | 12 | 345 | 0.0 | 0.0 | 0.00 | 0.00 | 0.13 | 90 | |
| 20260506003002 | 12 | 290 | 3.2 | 0.0 | 0.00 | 0.00 | 0.13 | 90 | |
| 20260506001502 | 12 | 305 | 3.2 | 0.0 | 0.00 | 0.00 | 0.13 | 90 | |
| 20260506000003 | 12 | 245 | 3.2 | 0.0 | 0.00 | 0.00 | 0.13 | 90 | |
| 20260505234502 | 12 | 7 | 4.8 | 0.0 | 0.00 | 0.00 | 0.13 | 90 | |
| 20260505233003 | 12 | 255 | 4.8 | 0.0 | 0.00 | 0.00 | 0.13 | 90 | |
| 20260505231502 | 12 | 210 | 3.2 | 0.0 | 0.00 | 0.00 | 0.13 | 90 | |
| 20260505230002 | 12 | 260 | 3.2 | 0.0 | 0.00 | 0.00 | 0.05 | 91 | |
| 20260505224502 | 12 | 212 | 6.4 | 0.0 | 0.00 | 0.00 | 0.00 | 91 | |
| 20260505223002 | 12 | 325 | 0.0 | 0.0 | 0.00 | 0.00 | 0.00 | 91 | |
| 20260505221501 | 12 | 120 | 0.0 | 0.0 | 0.00 | 0.00 | 0.00 | 91 | |
| 20260505220003 | 12 | 2 | 0.0 | 0.0 | 0.00 | 0.00 | 1.30 | 91 | |
| 20260505214502 | 12 | 100 | 0.0 | 0.0 | 0.00 | 0.00 | 1.30 | 91 | |
| 20260505213002 | 12 | 332 | 0.0 | 0.0 | 0.00 | 0.00 | 1.30 | 91 | |
| 20260505211503 | 12 | 337 | 0.0 | 0.0 | 0.00 | 0.00 | 1.30 | 91 | |
| 20260505210003 | 12 | 322 | 0.0 | 0.0 | 0.00 | 0.00 | 1.30 | 91 | |
| 20260505204503 | 12 | 317 | 0.0 | 0.0 | 0.00 | 0.00 | 1.30 | 91 | |
| 20260505203002 | 12 | 327 | 0.0 | 0.0 | 0.00 | 0.00 | 1.30 | 90 | |
| 20260505201503 | 12 | 332 | 0.0 | 0.0 | 0.00 | 0.00 | 1.30 | 90 | |
| 20260505200001 | 13 | 345 | 0.0 | 0.0 | 0.00 | 0.00 | 1.30 | 90 | |
| 20260505194501 | 13 | 345 | 0.0 | 0.0 | 0.00 | 0.00 | 1.30 | 90 | |
| 20260505193003 | 13 | 322 | 0.0 | 0.0 | 0.00 | 0.00 | 1.30 | 90 | |
| 20260505191502 | 13 | 335 | 0.0 | 0.0 | 0.00 | 0.00 | 1.30 | 89 | |
| 20260505190003 | 13 | 337 | 0.0 | 0.0 | 0.00 | 0.00 | 1.30 | 89 | |
| 20260505184502 | 13 | 225 | 0.0 | 0.0 | 0.00 | 0.00 | 1.30 | 89 | |
| 20260505183002 | 13 | 247 | 0.0 | 0.0 | 0.00 | 0.00 | 1.30 | 89 | |
| 20260505181502 | 13 | 180 | 0.0 | 0.0 | 0.00 | 0.00 | 1.30 | 89 | |
| 20260505180003 | 13 | 170 | 0.0 | 0.0 | 0.00 | 0.00 | 1.27 | 89 | |
| 20260505174502 | 13 | 137 | 0.0 | 0.0 | 0.00 | 0.00 | 1.24 | 88 | |
| 20260505173001 | 13 | 132 | 0.0 | 0.0 | 0.00 | 0.00 | 1.24 | 88 | |
| 20260505171502 | 13 | 142 | 0.0 | 0.0 | 0.00 | 0.00 | 1.22 | 88 | |
| 20260505170003 | 13 | 120 | 0.0 | 0.0 | 0.00 | 0.00 | 1.17 | 88 | |
| 20260505164502 | 13 | 317 | 9.7 | 0.0 | 0.00 | 0.00 | 1.12 | 87 | |
| 20260505163002 | 13 | 230 | 12.9 | 0.0 | 0.00 | 0.00 | 1.07 | 87 | |
| 20260505161503 | 13 | 232 | 9.7 | 0.0 | 0.00 | 0.00 | 0.97 | 86 | |
| 20260505153003 | 14 | 242 | 11.3 | 0.0 | 0.00 | 0.00 | 0.30 | 79 | |
| 20260505151502 | 16 | 240 | 12.9 | 0.0 | 0.00 | 0.00 | 0.15 | 71 | |
| 20260505124503 | 24 | 335 | 3.2 | 0.0 | 0.00 | 0.00 | 0.00 | 38 | |
| 20260505123002 | 24 | 172 | 6.4 | 0.0 | 0.00 | 0.00 | 0.00 | 38 | |
| 20260505121502 | 25 | 202 | 4.8 | 0.0 | 0.00 | 0.00 | 0.00 | 38 | |
| 20260505120002 | 25 | 220 | 4.8 | 0.0 | 0.00 | 0.00 | 0.00 | 37 | |
| 20260505114503 | 23 | 107 | 9.7 | 0.0 | 0.00 | 0.00 | 0.00 | 40 | |
| 20260505113003 | 23 | 105 | 4.8 | 0.0 | 0.00 | 0.00 | 0.00 | 41 | |
| 20260505111502 | 23 | 177 | 8.0 | 0.0 | 0.00 | 0.00 | 0.00 | 42 | |
| 20260505101503 | 21 | 137 | 12.9 | 0.0 | 0.00 | 0.00 | 0.00 | 49 | |
| 20260505100002 | 22 | 107 | 4.8 | 0.0 | 0.00 | 0.00 | 0.00 | 51 | |
| 20260505094502 | 22 | 197 | 0.0 | 0.0 | 0.00 | 0.00 | 0.00 | 51 | |
| 20260505093002 | 21 | 327 | 0.0 | 0.0 | 0.00 | 0.00 | 0.00 | 52 | |
| 20260505091503 | 21 | 220 | 0.0 | 0.0 | 0.00 | 0.00 | 0.00 | 53 | |
| 20260505090002 | 20 | 255 | 0.0 | 0.0 | 0.00 | 0.00 | 0.00 | 56 | |
| 20260505084503 | 20 | 165 | 0.0 | 0.0 | 0.00 | 0.00 | 0.00 | 58 | |
| 20260505083002 | 19 | 155 | 0.0 | 0.0 | 0.00 | 0.00 | 0.00 | 59 | |
| 20260505081502 | 19 | 175 | 0.0 | 0.0 | 0.00 | 0.00 | 0.00 | 60 | |
| 20260505080002 | 18 | 205 | 0.0 | 0.0 | 0.00 | 0.00 | 0.00 | 61 | |
| 20260505074503 | 18 | 232 | 0.0 | 0.0 | 0.00 | 0.00 | 0.00 | 62 | |
| 20260505073003 | 18 | 192 | 0.0 | 0.0 | 0.00 | 0.00 | 0.00 | 62 | |
| 20260505071502 | 17 | 317 | 0.0 | 0.0 | 0.00 | 0.00 | 0.00 | 66 | |
| 20260505070002 | 16 | 282 | 0.0 | 0.0 | 0.00 | 0.00 | 0.00 | 69 | |
| 20260505064502 | 15 | 230 | 0.0 | 0.0 | 0.00 | 0.00 | 0.00 | 70 | |
| 20260505063002 | 15 | 260 | 0.0 | 0.0 | 0.00 | 0.00 | 0.00 | 70 | |
| 20260505061502 | 15 | 190 | 0.0 | 0.0 | 0.00 | 0.00 | 0.00 | 75 | |
| 20260505060002 | 14 | 220 | 0.0 | 0.0 | 0.00 | 0.00 | 0.00 | 77 | |
| 20260505054502 | 13 | 210 | 0.0 | 0.0 | 0.00 | 0.00 | 0.00 | 78 | |
| 20260505053002 | 13 | 327 | 0.0 | 0.0 | 0.00 | 0.00 | 0.00 | 79 | |
| 20260505051502 | 13 | 160 | 0.0 | 0.0 | 0.00 | 0.00 | 0.00 | 80 | |
| 20260505041502 | 12 | 350 | 0.0 | 0.0 | 0.00 | 0.00 | 0.00 | 82 | |
| 20260505040002 | 13 | 330 | 0.0 | 0.0 | 0.00 | 0.00 | 0.00 | 82 | |
| 20260505034502 | 13 | 342 | 0.0 | 0.0 | 0.00 | 0.00 | 0.00 | 82 | |
| 20260505033002 | 13 | 315 | 0.0 | 0.0 | 0.00 | 0.00 | 0.00 | 80 | |
| 20260505031503 | 13 | 315 | 0.0 | 0.0 | 0.00 | 0.00 | 0.00 | 80 | |
| 20260505030003 | 13 | 320 | 0.0 | 0.0 | 0.00 | 0.00 | 0.00 | 81 | |
| 20260505024502 | 13 | 325 | 0.0 | 0.0 | 0.00 | 0.00 | 0.00 | 81 |